Location: Fort Wayne
(41.1310°N, 85.1290°W)
Time: 07:31:07
(UTC-04:00)

Cosmos 1953 - Visible Passes

Search period start: 17 September 2014 00:00
Search period end: 27 September 2014 00:00
Orbit: 549 x 571 km, 82.5° (Epoch: 17 September)

Date Brightness Start Highest point End Pass type
(mag) Time Alt. Az. Time Alt. Az. Time Alt. Az.
17 Sep 3.8 20:15:07 10° SE 20:17:49 18° E 20:20:32 10° NE visible
17 Sep 4.2 21:50:35 10° SW 21:54:11 31° WNW 21:57:49 10° NNW visible
18 Sep 3.6 20:13:38 10° SE 20:16:39 21° E 20:19:41 10° NE visible
18 Sep 4.5 21:49:42 10° SW 21:53:07 26° WNW 21:56:33 10° NNW visible
19 Sep 3.4 20:12:12 10° SE 20:15:29 25° E 20:18:47 10° NE visible
19 Sep 4.8 21:48:52 10° SW 21:52:03 22° WNW 21:55:15 10° NNW visible
20 Sep 3.1 20:10:50 10° SSE 20:14:19 29° E 20:17:49 10° NNE visible
20 Sep 5.1 21:48:04 10° WSW 21:50:59 19° WNW 21:53:54 10° NNW visible
21 Sep 2.9 20:09:30 10° SSE 20:13:09 35° E 20:16:50 10° NNE visible
21 Sep 5.4 21:47:21 10° WSW 21:49:55 16° WNW 21:52:29 10° NNW visible
22 Sep 2.7 20:08:12 10° SSE 20:11:59 42° E 20:15:47 10° NNE visible
22 Sep 5.6 21:46:45 10° WSW 21:48:51 14° WNW 21:50:58 10° NW visible
23 Sep 2.5 20:06:56 10° S 20:10:49 51° E 20:14:43 10° NNE visible
23 Sep 5.8 21:46:21 10° W 21:47:47 12° WNW 21:49:14 10° NW visible
24 Sep 6.2 06:10:37 10° ENE 06:11:11 10° ENE 06:11:46 10° ENE visible
24 Sep 2.3 20:05:42 10° S 20:09:39 62° E 20:13:38 10° NNE visible
25 Sep 5.9 06:08:25 10° NE 06:10:07 12° ENE 06:11:49 10° E visible
25 Sep 2.2 20:04:30 10° S 20:08:29 76° E 20:12:30 10° N visible
26 Sep 5.7 06:06:45 10° NE 06:09:02 15° ENE 06:11:19 10° ESE visible
26 Sep 2.3 20:03:19 10° S 20:07:19 89° W 20:11:21 10° N visible
